User: anonymous   Login
Location: Unspecified
(0.0000°N, 0.0000°E)
Time: 10:04:09
(UTC+00:00)
Language:

STARLINK-34476 - Orbit

View from above orbital plane
View from above orbital plane
View from above satellite
View from above satellite

Ground track
Ground track

The orbit is defined by the following mean orbital elements,

1 64364U          26145.33469597 +.00000000 +00000-0 +16748-3 0 00009
2 64364  70.0006 201.1600 0003660 269.5850  90.4890 14.98334930    02
Epoch (UTC): 25 May 2026 08:01:57
Eccentricity: 0.0003660
inclination: 70.0006°
perigee height: 569 km
apogee height: 575 km
right ascension of ascending node: 201.1600°
argument of perigee: 269.5850°
revolutions per day: 14.98334930
mean anomaly at epoch: 90.4890°

The dashed part of the orbit path shows where the satellite is in the earth's shadow,  

DLR